This is the latest recevied weather packets stored in our database for station/object F8KHU-13. If no packets are shown the sender has not sent any weather packets the latest 1 day(s).
| Time | Temp. | Humidity | Pressure | Rain* | Wind** | Luminosity | Snow |
|---|---|---|---|---|---|---|---|
| 1777995617 | 12.78° C | 33% | 1010.3 hPa | 0 mm | 0 m/s | 0 W/m² | - |
| 1777995597 | 12.78° C | 33% | 1010.3 hPa | 0 mm | 0.45 m/s, 147° | 0 W/m² | - |
| 1777994738 | 12.78° C | 32% | 1010.3 hPa | 0 mm | 0 m/s | 0 W/m² | - |
| 1777994717 | 12.78° C | 32% | 1010.4 hPa | 0 mm | 0 m/s | 0 W/m² | - |
| 1777994697 | 12.78° C | 32% | 1010.3 hPa | 0 mm | 1.34 m/s, 149° | 0 W/m² | - |
| 1777993837 | 13.33° C | 32% | 1010.3 hPa | 0 mm | 0.89 m/s, 153° | 0 W/m² | - |
| 1777993817 | 13.33° C | 32% | 1010.4 hPa | 0 mm | 0.45 m/s, 152° | 0 W/m² | - |
| 1777993797 | 13.33° C | 32% | 1010.3 hPa | 0 mm | 3.13 m/s, 152° | 0 W/m² | - |
| 1777992938 | 13.33° C | 32% | 1010.3 hPa | 0 mm | 0.45 m/s, 142° | 0 W/m² | - |
| 1777992918 | 13.33° C | 32% | 1010.3 hPa | 0 mm | 1.34 m/s, 142° | 0 W/m² | - |
| 1777992897 | 13.33° C | 32% | 1010.3 hPa | 0 mm | 0.45 m/s, 142° | 0 W/m² | - |
| 1777992037 | 13.33° C | 32% | 1010.4 hPa | 0 mm | 0 m/s | 0 W/m² | - |
| 1777992017 | 13.33° C | 32% | 1010.4 hPa | 0 mm | 0.45 m/s, 137° | 0 W/m² | - |
| 1777991997 | 13.33° C | 32% | 1010.4 hPa | 0 mm | 0 m/s | 0 W/m² | - |
| 1777991138 | 13.33° C | 32% | 1010.5 hPa | 0 mm | 0.45 m/s, 144° | 0 W/m² | - |
| 1777991118 | 13.33° C | 32% | 1010.4 hPa | 0 mm | 0.45 m/s, 145° | 0 W/m² | - |
| 1777991098 | 13.33° C | 32% | 1010.4 hPa | 0 mm | 1.79 m/s, 144° | 0 W/m² | - |
| 1777990238 | 13.33° C | 32% | 1010.5 hPa | 0 mm | 1.34 m/s, 136° | 0 W/m² | - |
| 1777990218 | 13.33° C | 32% | 1010.5 hPa | 0 mm | 0.89 m/s, 137° | 0 W/m² | - |
| 1777990198 | 13.33° C | 32% | 1010.6 hPa | 0 mm | 0 m/s | 0 W/m² | - |
| 1777989338 | 13.33° C | 32% | 1010.5 hPa | 0 mm | 1.34 m/s, 149° | 0 W/m² | - |
| 1777989318 | 13.33° C | 32% | 1010.6 hPa | 0 mm | 0.89 m/s, 150° | 0 W/m² | - |
| 1777989298 | 13.33° C | 32% | 1010.6 hPa | 0 mm | 1.79 m/s, 152° | 0 W/m² | - |
| 1777988438 | 13.89° C | 32% | 1010.8 hPa | 0 mm | 0.45 m/s, 142° | 0 W/m² | - |
| 1777988418 | 13.89° C | 32% | 1010.8 hPa | 0 mm | 0 m/s | 0 W/m² | - |
* Rain latest hour (hover to see other rain measurements)
** Current wind speed in m/s (hover to see current wind gust speed)